Simultaneous Nadir Overpasses (SNOs) Predictions

Prediction of SNOs between FY3D and AQUA Satellite Orbit:

Table of predicted SNOs for the next 14.0 days since TLE Epoch: 2/22/2025
Index Date (FY3D) Time (FY3D) Lat,Lon (FY3D) SZA (FY3D ) Date (AQUA) Time (AQUA) Lat,Lon (AQUA) SZA (AQUA ) Distance(km) Time Diff (sec)
1 02/23/2025 03:45:21 -79.48, -70.41 90.35 02/23/2025 03:45:27 -79.49, -70.50 90.34 2.10 6
2 02/25/2025 14:06:56 79.47, -45.61 88.73 02/25/2025 14:06:51 79.47, -45.65 88.73 0.74 5
3 02/27/2025 23:37:54 79.67, 169.92 88.11 02/27/2025 23:39:01 79.66, 170.00 88.08 1.82 67
4 02/28/2025 00:28:32 -79.45, -20.76 92.23 02/28/2025 00:28:14 -79.44, -20.73 92.23 0.82 18
5 03/02/2025 09:59:30 -79.65,-165.28 92.85 03/02/2025 10:00:23 -79.65,-165.19 92.88 1.73 53
6 03/02/2025 10:50:05 79.35, 4.72 86.71 03/02/2025 10:49:34 79.36, 4.58 86.73 2.85 31
7 03/04/2025 20:21:05 79.63,-140.40 86.17 03/04/2025 20:21:43 79.62,-140.29 86.15 2.17 38
8 03/04/2025 21:11:43 -79.41, 28.91 94.16 03/04/2025 21:10:56 -79.40, 28.99 94.16 1.82 47
9 03/07/2025 06:42:38 -79.53,-114.87 94.92 03/07/2025 06:43:00 -79.54,-114.93 94.92 1.17 22



Historial Predications of SNOs between FY3D and AQUA
